sat.trackr.live / text

‹ back to catalog

STARLINK-31291

NORAD 59096 · 2024-041Y

PAYLOAD ACTIVE UNKNOWN

§ Identity

Operator
Country
US
Launch date
2024-02-29
Launch site
AFETR
Launch vehicle
Mass (kg)
RCS (m²)

Purposes: comms

External: N2YO · Heavens-Above · Gunter

§ Orbital elements

Epoch: 2026-09-19T08:58:07.256640Z

Period
94.27 min
Inclination
43.0035°
Eccentricity
0.0001436
Mean motion
15.27579862 rev/d
Perigee alt
482.1 km
Apogee alt
484.0 km
Semi-major
6,861.2 km
B*
2.6560e-5
RAAN
296.8174°
Arg perigee
270.4311°
Mean anomaly
89.6376°
Rev number
14,389

§ Raw data

STARLINK-312911 59096U 24041Y   26262.37369510  .00000469  00000+0  26560-4 0  99932 59096  43.0035 296.8174 0001436 270.4311  89.6376 15.27579862143891

JSON: /api/v1/satellites/59096 · /tle

For live sub-satellite position, see the globe view (requires WebGL).

§ Visibility from observer

Set your observer location to see the next 7 days of passes ≥ 10°. The values pass through the URL so the page stays shareable.

No JS? Fill the form by hand. The geolocation button needs JavaScript.